Change the Weather History Date:

Friday, December 27, 2013

  Actual Average Record
Temperature  
Mean Temperature 36 °F 30 °F  
Max Temperature 44 °F 38 °F 56 °F (1973)
Min Temperature 28 °F 22 °F -5 °F (1983)
Degree Days  
Heating Degree Days 29 35  
Month to date heating degree days 846 862  
Since 1 July heating degree days 2082 2020  
Cooling Degree Days 0 0  
Month to date cooling degree days 0 0  
Year to date cooling degree days 755 697  
Moisture  
Dew Point 22 °F    
Average Humidity 63    
Maximum Humidity 78    
Minimum Humidity 48    
Precipitation  
Precipitation 0.00 in 0.09 in 0.72 in (1973)
Month to date precipitation 3.17 2.37  
Year to date precipitation 34.41 38.60  
Sea Level Pressure  
Sea Level Pressure 30.33 in    
Wind  
Wind Speed 4 mph (SW)    
Max Wind Speed 10 mph    
Max Gust Speed 16 mph    
Visibility 10 miles    
Events      
T = Trace of Precipitation, MM = Missing Value Source: NWS Daily Summary

Daily Weather History Graph

Daily Weather History Graph

Search for Another Location

Airport or City:

Trip Planner

Search our weather history database for the weather conditions in past years. The results will help you decide how hot, cold, wet, or windy it might be!

Date:

Astronomy

Dec. 27, 2013 Rise Set
Actual Time 7:47 AM EST 5:05 PM EST
Civil Twilight 7:17 AM EST 5:36 PM EST
Nautical Twilight 6:42 AM EST 6:11 PM EST
Astronomical Twilight 6:09 AM EST 6:44 PM EST
Moon 2:17 AM EST (12/27) 1:16 PM EST (12/27)
Length of Visible Light 10h 19m
Length of Day
9h 18m
Waning Crescent, 28% of the Moon is Illuminated
Dec 27
Waning Crescent
Jan 1
New
Jan 7
First Quarter
Jan 15
Full
Jan 24
Last Quarter

Hourly Weather History & Observations

Time (EST) Temp. Windchill Dew Point Humidity Pressure Visibility Wind Dir Wind Speed Gust Speed Precip Events Conditions
12:53 AM 28.9 °F 23.9 °F 17.1 °F 61% 30.35 in 10.0 mi SSE 4.6 mph - N/A   Overcast
1:53 AM 30.0 °F 26.5 °F 19.0 °F 64% 30.34 in 10.0 mi ESE 3.5 mph - N/A   Overcast
2:53 AM 30.9 °F - 19.9 °F 64% 30.34 in 10.0 mi Calm Calm - N/A   Overcast
3:53 AM 33.1 °F 30.0 °F 19.9 °F 59% 30.33 in 10.0 mi Variable 3.5 mph - N/A   Overcast
4:53 AM 33.1 °F 26.9 °F 19.9 °F 59% 30.33 in 10.0 mi Variable 6.9 mph - N/A   Overcast
5:53 AM 33.1 °F 28.7 °F 19.9 °F 59% 30.33 in 10.0 mi Variable 4.6 mph - N/A   Overcast
6:53 AM 33.1 °F 30.0 °F 21.0 °F 61% 30.33 in 10.0 mi SW 3.5 mph - N/A   Overcast
7:53 AM 34.0 °F 28.0 °F 19.9 °F 56% 30.34 in 10.0 mi SW 6.9 mph - N/A   Overcast
8:53 AM 34.0 °F 28.0 °F 19.9 °F 56% 30.35 in 10.0 mi SW 6.9 mph - N/A   Overcast
9:53 AM 36.0 °F 30.3 °F 19.9 °F 52% 30.39 in 10.0 mi WSW 6.9 mph - N/A   Overcast
10:53 AM 37.0 °F 32.4 °F 21.0 °F 52% 30.40 in 10.0 mi WSW 5.8 mph - N/A   Overcast
11:53 AM 39.0 °F 35.7 °F 21.9 °F 50% 30.38 in 10.0 mi WSW 4.6 mph - N/A   Clear
12:53 PM 41.0 °F 37.1 °F 24.1 °F 51% 30.35 in 10.0 mi SW 5.8 mph - N/A   Clear
1:53 PM 42.1 °F 36.6 °F 25.0 °F 51% 30.34 in 10.0 mi WSW 9.2 mph - N/A   Clear
2:53 PM 43.0 °F 38.2 °F 25.0 °F 49% 30.33 in 10.0 mi WSW 8.1 mph - N/A   Clear
3:53 PM 44.1 °F 41.5 °F 26.1 °F 49% 30.32 in 10.0 mi SW 4.6 mph - N/A   Clear
4:53 PM 42.1 °F 40.2 °F 26.1 °F 53% 30.31 in 10.0 mi Variable 3.5 mph - N/A   Clear
5:53 PM 39.9 °F - 26.1 °F 58% 30.32 in 10.0 mi Calm Calm - N/A   Clear
6:53 PM 39.0 °F - 26.1 °F 60% 30.33 in 10.0 mi Calm Calm - N/A   Clear
7:53 PM 36.0 °F - 25.0 °F 64% 30.32 in 10.0 mi Calm Calm - N/A   Clear
8:53 PM 30.0 °F - 24.1 °F 79% 30.31 in 10.0 mi Calm Calm - N/A   Clear
9:53 PM 32.0 °F 26.4 °F 25.0 °F 75% 30.30 in 10.0 mi SE 5.8 mph - N/A   Clear
10:53 PM 32.0 °F 27.5 °F 24.1 °F 73% 30.29 in 10.0 mi SSE 4.6 mph - N/A   Clear
11:53 PM 39.0 °F 34.8 °F 23.0 °F 53% 30.28 in 10.0 mi SW 5.8 mph - N/A   Clear